Edinburg, TX

6:01 PM CST on January 20, 2018 (GMT -0600)
Edinburg

Weather History for KEBG - January, 2013

Change the Weather History Date:

Saturday, January 19, 2013

  Actual Average (KMFE) Record (KMFE)
Temperature  
Mean Temperature 60 °F -  
Max Temperature 75 °F 70 °F 89 °F (1952)
Min Temperature 44 °F 50 °F 29 °F (1914)
Degree Days  
Heating Degree Days 6    
Growing Degree Days 10 (Base 50)    
Moisture  
Dew Point 46 °F    
Average Humidity 63    
Maximum Humidity 90    
Minimum Humidity 30    
Precipitation  
Precipitation 0.00 in - - ()
Sea Level Pressure  
Sea Level Pressure 30.24 in    
Wind  
Wind Speed 3 mph (SSE)    
Max Wind Speed 12 mph    
Max Gust Speed 16 mph    
Visibility 7 miles    
Events      
Averages and records for this station are not official NWS values.
T = Trace of Precipitation, MM = Missing Value Source: NWS Daily Summary

Daily Weather History Graph

Daily Weather History Graph

Search for Another Location

Airport or City:

Trip Planner

Search our weather history database for the weather conditions in past years. The results will help you decide how hot, cold, wet, or windy it might be!

Date:

Astronomy

Jan. 19, 2013 Rise Set
Actual Time 7:21 AM CST 6:05 PM CST
Civil Twilight 6:56 AM CST 6:30 PM CST
Nautical Twilight 6:28 AM CST 6:58 PM CST
Astronomical Twilight 6:00 AM CST 7:26 PM CST
Moon 12:26 PM CST (1/19) 1:05 AM CST (1/19)
Length of Visible Light 11h 33m
Length of Day
10h 43m
First Quarter, 57% of the Moon is Illuminated
Jan 19
First Quarter
Jan 26
Full
Feb 3
Last Quarter
Feb 10
New
Feb 17
First Quarter

Hourly Weather History & Observations

Time (CST) Temp. Windchill Dew Point Humidity Pressure Visibility Wind Dir Wind Speed Gust Speed Precip Events Conditions
12:15 AM 52.5 °F - 45.1 °F 76% 30.31 in 7.0 mi Calm Calm - N/A   Clear
12:35 AM 52.3 °F - 45.0 °F 76% 30.31 in 7.0 mi Calm Calm - N/A   Clear
12:55 AM 50.9 °F - 44.6 °F 79% 30.31 in 7.0 mi Calm Calm - N/A   Clear
1:15 AM 50.0 °F - 43.7 °F 79% 30.30 in 7.0 mi East 3.5 mph - N/A   Clear
1:35 AM 49.6 °F - 44.4 °F 82% 30.29 in 10.0 mi Calm Calm - N/A   Clear
1:55 AM 50.2 °F - 44.2 °F 80% 30.28 in 7.0 mi Calm Calm - N/A   Clear
2:15 AM 51.8 °F - 45.5 °F 79% 30.28 in 7.0 mi Calm Calm - N/A   Clear
2:35 AM 50.7 °F - 45.0 °F 81% 30.28 in 7.0 mi Calm Calm - N/A   Clear
2:55 AM 50.4 °F - 45.5 °F 83% 30.27 in 7.0 mi Calm Calm - N/A   Clear
3:15 AM 49.5 °F - 45.0 °F 84% 30.26 in 7.0 mi Calm Calm - N/A   Clear
3:35 AM 50.0 °F - 45.3 °F 84% 30.26 in 7.0 mi Calm Calm - N/A   Clear
3:55 AM 49.8 °F - 44.8 °F 83% 30.26 in 10.0 mi Calm Calm - N/A   Clear
4:15 AM 48.2 °F - 43.7 °F 84% 30.26 in 7.0 mi Calm Calm - N/A   Clear
4:35 AM 47.3 °F - 43.3 °F 86% 30.26 in 7.0 mi NW 4.6 mph - N/A   Clear
4:55 AM 46.6 °F - 43.0 °F 87% 30.25 in 7.0 mi NNW 4.6 mph - N/A   Clear
5:15 AM 46.6 °F - 43.0 °F 87% 30.26 in 7.0 mi NW 4.6 mph - N/A   Clear
5:35 AM 45.9 °F 42.9 °F 42.6 °F 88% 30.26 in 7.0 mi NNW 5.8 mph - N/A   Clear
5:55 AM 45.1 °F 42.8 °F 41.9 °F 88% 30.26 in 7.0 mi NW 4.6 mph - N/A   Clear
7:15 AM 44.1 °F 41.5 °F 41.0 °F 89% 30.28 in 7.0 mi NNW 4.6 mph - N/A   Clear
8:15 AM 46.6 °F - 43.9 °F 90% 30.29 in 4.0 mi NNW 4.6 mph - N/A   Clear
8:35 AM 48.7 °F - 45.5 °F 89% 30.30 in 4.0 mi Calm Calm - N/A   Clear
9:35 AM 56.3 °F - 47.7 °F 73% 30.31 in 5.0 mi Calm Calm - N/A   Haze
9:55 AM 60.4 °F - 48.6 °F 65% 30.31 in 5.0 mi Calm Calm - N/A   Haze
10:15 AM 63.0 °F - 49.1 °F 61% 30.32 in 7.0 mi Calm Calm - N/A   Clear
10:35 AM 64.9 °F - 48.9 °F 56% 30.31 in 5.0 mi Calm Calm - N/A   Haze
10:55 AM 66.7 °F - 48.7 °F 52% 30.31 in 7.0 mi SE 4.6 mph - N/A   Clear
11:15 AM 68.4 °F - 48.9 °F 50% 30.30 in 7.0 mi SE 5.8 mph - N/A   Clear
11:35 AM 69.6 °F - 48.6 °F 47% 30.29 in 5.0 mi SSE 5.8 mph - N/A   Haze
11:55 AM 70.5 °F - 48.6 °F 46% 30.28 in 7.0 mi South 5.8 mph - N/A   Clear
12:15 PM 71.8 °F - 46.8 °F 41% 30.27 in 7.0 mi South 6.9 mph - N/A   Clear
12:35 PM 71.8 °F - 46.6 °F 41% 30.25 in 7.0 mi SSW 6.9 mph - N/A   Clear
12:55 PM 73.6 °F - 44.1 °F 35% 30.23 in 7.0 mi South 9.2 mph - N/A   Clear
1:15 PM 73.0 °F - 43.9 °F 35% 30.21 in 7.0 mi South 4.6 mph - N/A   Clear
1:55 PM 74.5 °F - 43.3 °F 33% 30.19 in 7.0 mi South 9.2 mph 16.1 mph N/A   Clear
2:15 PM 74.7 °F - 43.3 °F 33% 30.18 in 5.0 mi SSW 4.6 mph - N/A   Haze
2:35 PM 75.0 °F - 43.5 °F 32% 30.18 in 7.0 mi South 8.1 mph - N/A   Clear
2:55 PM 75.4 °F - 43.3 °F 32% 30.16 in 4.0 mi SW 5.8 mph - N/A   Haze
3:15 PM 74.8 °F - 43.2 °F 32% 30.15 in 5.0 mi South 4.6 mph - N/A   Haze
3:35 PM 75.2 °F - 43.2 °F 32% 30.15 in 7.0 mi South 5.8 mph - N/A   Clear
3:55 PM 75.4 °F - 42.4 °F 31% 30.14 in 7.0 mi South 6.9 mph - N/A   Clear
4:15 PM 75.2 °F - 41.9 °F 30% 30.15 in 7.0 mi SSE 10.4 mph - N/A   Clear
4:35 PM 75.0 °F - 42.4 °F 31% 30.15 in 7.0 mi South 4.6 mph - N/A   Clear
4:55 PM 74.7 °F - 42.6 °F 32% 30.16 in 7.0 mi South 6.9 mph - N/A   Clear
5:15 PM 74.1 °F - 43.2 °F 33% 30.16 in 7.0 mi South 8.1 mph - N/A   Clear
5:35 PM 72.9 °F - 44.2 °F 36% 30.15 in 7.0 mi SSE 3.5 mph - N/A   Clear
5:55 PM 71.6 °F - 45.0 °F 38% 30.16 in 7.0 mi South 3.5 mph - N/A   Clear
6:15 PM 70.7 °F - 44.4 °F 39% 30.17 in 7.0 mi Calm Calm - N/A   Clear
6:35 PM 67.6 °F - 50.5 °F 54% 30.18 in 7.0 mi ESE 11.5 mph - N/A   Clear
6:55 PM 66.2 °F - 50.9 °F 58% 30.18 in 10.0 mi ESE 9.2 mph - N/A   Clear
7:15 PM 65.3 °F - 50.9 °F 60% 30.19 in 7.0 mi ESE 9.2 mph - N/A   Clear
7:35 PM 64.6 °F - 50.9 °F 61% 30.20 in 7.0 mi ESE 8.1 mph - N/A   Clear
7:55 PM 63.5 °F - 50.9 °F 63% 30.20 in 7.0 mi ESE 8.1 mph - N/A   Clear
8:15 PM 62.6 °F - 50.5 °F 65% 30.21 in 7.0 mi ESE 6.9 mph - N/A   Clear
8:35 PM 61.0 °F - 50.4 °F 68% 30.21 in 7.0 mi ESE 8.1 mph - N/A   Clear
8:55 PM 59.9 °F - 50.2 °F 70% 30.23 in 10.0 mi SE 6.9 mph - N/A   Clear
9:15 PM 58.8 °F - 50.0 °F 73% 30.23 in 10.0 mi SE 4.6 mph - N/A   Clear
9:35 PM 57.7 °F - 49.8 °F 75% 30.22 in 10.0 mi SE 4.6 mph - N/A   Clear
9:55 PM 57.2 °F - 50.0 °F 77% 30.23 in 7.0 mi SE 4.6 mph - N/A   Clear
10:15 PM 57.4 °F - 50.2 °F 77% 30.23 in 7.0 mi Calm Calm - N/A   Clear
10:35 PM 56.1 °F - 49.3 °F 78% 30.23 in 5.0 mi Calm Calm - N/A   Haze
10:55 PM 55.4 °F - 49.3 °F 80% 30.23 in 7.0 mi Calm Calm - N/A   Clear
11:15 PM 55.4 °F - 49.6 °F 81% 30.23 in 10.0 mi Calm Calm - N/A   Clear
11:35 PM 54.9 °F - 49.5 °F 82% 30.23 in 7.0 mi ESE 3.5 mph - N/A   Clear
11:55 PM 54.7 °F - 49.3 °F 82% 30.23 in 7.0 mi Calm Calm - N/A   Clear